カタログに戻る

STARLINK-5113

運用中通信VLEO
NORAD 53988·PAYLOAD·🇺🇸 United States

打ち上げ Oct 5, 2022 から Vandenberg Space Force Base

Loading…

次のパス (今後24時間)

TLE

最新Source: CelesTrak SupGP

元期: Sep 14, 2026, 20:45 UTC

1 53988C 22125AA  26257.86506944  .00020946  00000+0  61895-3 0  2578
2 53988  53.1600  78.0666 0001356  80.7901 143.7374 15.34375966    12

AllMySatでSTARLINK-5113をリアルタイム追跡

Download on the App Store